Location: Clarks Summit,Pa.
(41.5000°N, 75.6000°W)
Time: 10:16:36
(UTC-05:00)

Envisat - Pass Details

Date: 27 November 2018
Orbit: 764 x 766 km, 98.2° (Epoch: 11 December)

Event Time Altitude Azimuth Distance (km) Brightness Sun altitude
Rises 19:43:52 0° 193° (SSW) 3,218 6.4 -34.9°
Reaches altitude 10° 19:46:26 10° 205° (SSW) 2,296 5.7 -35.4°
Enters shadow 19:46:45 12° 207° (SSW) 2,191 5.6 -35.5°
Exits shadow 19:50:20 29° 255° (WSW) 1,391 4.7 -36.1°
Maximum altitude 19:50:49 29° 265° (W) 1,377 4.7 -36.2°
Drops below altitude 10° 19:55:13 10° 325° (NW) 2,309 5.8 -37.0°
Sets 19:57:49 0° 336° (NNW) 3,240 6.6 -37.5°
